Date,TemperatureHighF,TemperatureAvgF,TemperatureLowF,DewpointHighF,DewpointAvgF,DewpointLowF,HumidityHigh,HumidityAvg,HumidityLow,PressureMaxIn,PressureMinIn,WindSpeedMaxMPH,WindSpeedAvgMPH,GustSpeedMaxMPH,PrecipitationSumIn
2013-1-19,46.6,37.4,14.8,37.5,29.9,11.1,88,75,61,30.40,29.93,6,3,25,1.03
2013-1-20,55.0,44.3,29.5,39.8,32.1,14.5,82,64,45,29.91,29.56,6,3,29,1.03
2013-1-21,29.5,26.2,20.5,23.2,14.8,9.2,94,64,46,30.09,29.80,2,1,16,1.03
2013-1-22,26.4,20.9,11.2,22.9,11.1,1.5,95,68,41,30.07,29.74,3,1,20,1.09
2013-1-23,17.5,11.3,6.5,3.0,-1.8,-5.5,70,56,45,30.14,30.06,3,1,24,1.09
2013-1-24,19.7,10.8,-0.6,0.3,-3.5,-6.6,75,53,39,30.20,30.05,5,2,20,1.09
2013-1-25,25.1,16.9,5.5,14.2,1.9,-5.5,83,52,35,30.30,30.03,3,1,16,1.09
2013-1-26,27.9,17.9,9.1,14.5,7.3,-2.3,91,65,40,30.23,29.98,18,4,18,0.00
2013-1-27,32.4,19.8,9.8,11.0,6.5,2.0,78,57,36,30.45,30.22,15,3,15,0.00
2013-1-28,32.4,23.6,11.4,30.0,17.5,6.7,97,79,44,30.45,29.98,12,1,12,0.00
2013-1-29,34.5,32.0,29.3,33.6,31.3,28.8,99,97,96,30.18,29.97,4,0,4,0.21
2013-1-30,59.3,49.7,33.6,57.4,49.1,33.3,100,98,92,30.15,29.49,31,9,31,0.13
2013-1-31,61.6,53.5,40.4,58.9,47.0,22.0,99,81,45,29.49,29.02,45,14,45,0.79
2013-2-1,34.4,28.1,21.7,17.4,12.6,7.8,62,52,42,30.09,29.60,14,2,22,0.79
2013-2-2,30.5,24.7,16.0,19.2,12.8,7.8,76,61,45,30.24,30.04,7,1,15,0.00
2013-2-3,34.7,26.3,20.0,25.7,21.5,17.4,92,82,68,30.04,29.71,3,1,12,0.00
2013-2-4,32.3,24.1,17.1,22.4,14.4,9.8,93,68,43,29.94,29.71,9,2,26,0.00
2013-2-5,25.8,24.0,18.3,25.2,18.5,12.8,100,79,66,30.01,29.91,2,0,5,0.00
2013-2-6,42.2,30.8,25.7,30.7,22.3,8.9,96,73,47,30.27,29.90,6,1,17,0.05
2013-2-7,32.3,24.5,16.1,16.5,10.4,7.5,79,56,37,30.51,30.28,5,1,12,0.00
2013-2-8,32.5,30.0,21.1,32.0,27.6,15.9,100,91,77,30.46,29.49,7,2,16,0.02
2013-2-9,28.9,19.4,13.2,28.7,18.1,11.1,99,95,91,30.14,29.40,0,0,0,0.03
2013-2-10,33.2,18.6,4.0,29.5,16.3,2.0,95,90,81,30.38,30.17,0,0,5,0.27
2013-2-11,45.3,32.0,12.2,45.0,31.4,10.6,100,98,93,30.35,29.59,5,1,22,1.04
2013-2-12,45.9,37.9,29.9,40.1,32.0,25.9,100,81,56,29.88,29.61,6,2,23,1.04
2013-2-13,43.2,32.7,23.9,28.8,26.3,22.1,93,78,55,29.87,29.67,2,0,12,1.04
2013-2-14,35.6,32.5,27.3,34.1,31.4,26.3,98,96,89,29.94,29.68,5,0,5,1.04
2013-2-15,34.8,28.2,23.6,33.5,27.3,22.6,97,96,95,30.00,29.93,0,0,3,0.00
2013-2-16,37.5,33.2,30.1,33.4,32.0,27.0,99,95,82,29.93,29.63,14,2,14,0.04
2013-2-17,30.4,22.6,17.3,27.1,15.5,4.4,100,76,45,29.68,29.35,26,10,26,0.04
2013-2-18,33.1,20.1,14.7,9.8,5.3,3.2,61,53,35,30.00,29.69,22,9,22,0.03
2013-2-19,27.7,25.4,20.8,17.0,14.3,8.1,76,63,54,30.16,29.73,16,3,16,0.01
2013-2-20,40.2,31.1,25.6,39.9,24.4,13.8,99,78,57,29.78,29.55,16,3,16,0.01
2013-2-21,36.0,28.9,25.0,18.6,16.8,14.9,72,61,47,30.14,29.78,20,6,20,0.01
2013-2-22,38.6,31.5,26.2,28.5,24.1,18.2,87,74,64,30.34,30.17,12,3,12,0.00
2013-2-23,38.7,34.0,30.3,34.5,30.5,26.9,98,87,75,30.31,29.86,13,2,13,0.33
2013-2-24,40.2,36.1,31.2,40.2,35.6,30.7,100,98,96,29.86,29.62,16,4,16,0.01
2013-2-25,43.1,34.6,28.3,34.5,31.1,27.6,98,88,63,30.23,29.87,7,1,7,0.16
2013-2-26,45.9,36.6,27.6,35.1,30.3,26.8,98,79,51,30.32,30.11,10,2,10,0.00
2013-2-27,43.3,41.1,37.3,42.9,40.6,34.4,100,98,89,30.10,29.53,20,6,20,0.42
2013-2-28,47.8,39.2,34.8,42.5,37.5,34.3,100,94,78,29.63,29.50,6,1,6,0.01
2013-3-1,44.4,38.4,32.7,37.3,32.9,29.5,99,82,61,29.66,29.50,12,2,12,0.01
2013-3-2,45.2,38.2,32.6,32.2,29.7,27.9,83,72,58,29.67,29.60,12,2,12,0.00
2013-3-3,45.6,37.0,31.6,31.8,29.5,27.1,93,75,57,29.62,29.53,13,2,13,0.00
2013-3-4,43.1,35.3,28.7,29.4,26.1,22.9,92,70,53,29.68,29.56,18,6,18,0.00
2013-3-5,45.4,36.8,28.4,34.1,29.3,24.7,95,75,62,30.03,29.73,3,1,18,0.00
2013-3-6,34.4,32.1,29.6,33.9,31.7,28.6,99,98,96,30.02,29.87,18,2,18,0.11
2013-3-7,35.1,33.1,32.2,33.7,32.5,32.0,99,98,94,29.94,29.90,12,4,24,0.11
2013-3-8,37.0,32.9,31.0,34.2,31.8,30.3,99,96,78,30.08,29.86,17,2,17,0.02
2013-3-9,43.5,35.5,27.1,34.3,30.1,26.3,97,81,64,30.32,30.08,15,4,15,0.22
2013-3-10,45.6,35.3,26.6,35.8,31.5,25.9,100,87,67,30.39,30.31,9,2,9,0.31
2013-3-11,49.9,40.7,32.9,42.9,38.0,31.6,96,91,76,30.31,30.15,12,3,12,0.00
2013-3-12,55.9,49.5,38.6,54.8,48.7,38.1,100,97,88,30.16,29.72,20,6,23,0.95
2013-3-13,55.2,44.6,29.6,51.3,35.7,25.6,100,73,42,29.77,29.68,17,4,17,0.98
2013-3-14,37.4,30.9,23.9,28.6,19.4,8.9,91,64,44,29.83,29.70,18,6,20,0.00
2013-3-15,42.7,31.4,20.8,28.6,17.4,10.7,83,58,30,29.87,29.64,15,4,18,0.00
2013-3-16,40.6,34.2,26.6,28.6,20.7,13.0,84,60,32,29.85,29.68,9,1,12,0.00
2013-3-17,41.7,31.3,22.2,25.3,16.8,7.8,92,58,31,30.28,29.85,16,2,18,0.00
2013-3-18,39.7,29.4,19.0,26.1,14.7,4.1,81,55,37,30.44,30.21,8,2,8,0.00
2013-3-19,38.8,34.1,29.4,38.3,33.5,27.4,99,97,92,30.18,29.51,18,6,18,0.47
2013-3-20,43.1,32.9,24.7,29.2,23.7,20.6,94,71,45,29.81,29.66,21,5,22,0.02
2013-3-21,38.9,30.8,23.8,30.8,26.5,21.8,97,85,62,29.81,29.59,10,1,10,0.02
2013-3-22,43.3,33.8,24.0,29.2,24.4,20.6,97,71,42,29.75,29.59,15,4,15,0.18
2013-3-23,45.2,36.0,27.4,27.0,23.1,21.3,84,61,40,29.78,29.64,22,6,25,0.00
2013-3-24,51.1,37.9,26.9,31.6,25.9,21.2,88,64,40,29.82,29.70,9,2,15,0.00
2013-3-25,47.6,36.7,27.5,36.7,30.4,25.7,95,80,50,29.74,29.47,20,5,20,0.01
2013-3-26,50.3,39.7,31.8,33.8,30.2,25.8,96,71,43,29.76,29.47,13,3,13,0.03
2013-3-27,55.8,41.1,23.9,33.2,27.4,21.8,93,62,37,29.84,29.73,15,3,15,0.00
2013-3-28,48.1,41.9,36.5,37.9,34.9,31.1,96,77,53,30.00,29.83,10,2,13,0.01
2013-3-29,59.8,45.4,28.4,40.2,34.0,27.2,97,67,41,30.03,29.95,13,2,13,0.01
2013-3-30,59.8,46.9,30.8,34.5,30.7,20.9,90,58,25,30.08,29.98,13,3,13,0.00
2013-3-31,59.2,44.0,25.8,44.2,32.7,24.6,97,69,34,30.11,29.72,22,4,22,0.15
2013-4-1,58.9,47.9,35.2,48.2,41.6,17.4,99,80,48,29.79,29.52,22,6,22,0.05
2013-4-2,44.0,34.9,27.0,21.6,17.8,12.9,70,51,33,29.96,29.81,21,4,21,0.01
2013-4-3,47.9,37.5,29.8,20.8,17.7,15.9,61,45,31,30.16,29.94,25,8,25,0.01
2013-4-4,51.4,38.9,26.2,34.1,24.2,17.4,84,57,34,30.30,30.07,18,5,18,0.00
2013-4-5,60.6,47.2,38.7,44.1,33.6,26.0,86,62,30,30.07,29.61,15,4,15,0.00
2013-4-6,49.3,39.4,28.5,27.5,19.1,10.8,84,47,23,30.32,29.87,17,4,22,0.00
2013-4-7,51.9,41.1,24.3,43.7,33.0,22.8,95,75,35,30.32,30.03,24,7,24,0.00
2013-4-8,69.8,54.3,44.6,48.0,44.5,40.1,97,72,39,30.10,29.95,14,4,14,0.00
2013-4-9,77.9,58.2,46.9,59.4,48.1,40.5,99,73,36,30.08,29.83,15,5,15,0.01
2013-4-10,67.8,52.9,44.4,54.7,47.3,43.2,98,83,58,30.00,29.83,10,6,10,0.37
2013-4-11,54.8,47.9,44.3,47.2,43.2,35.3,99,84,65,30.11,29.80,7,6,7,0.40
2013-4-12,44.2,40.8,38.0,39.1,36.9,31.7,99,86,66,30.13,29.72,13,6,13,0.98
2013-4-13,52.5,43.5,37.7,43.1,39.5,36.5,98,87,64,29.93,29.69,9,6,9,1.01
2013-4-14,56.7,45.7,35.6,44.2,36.0,28.8,99,72,44,30.20,29.92,12,6,12,1.01
2013-4-15,57.7,43.4,29.4,39.5,34.8,27.6,94,74,44,30.39,30.20,8,6,8,1.01
2013-4-16,60.9,48.9,32.1,50.2,42.6,31.2,99,81,52,30.40,30.10,18,7,18,1.01
2013-4-17,70.1,57.3,40.7,52.3,45.7,35.8,97,70,29,30.31,30.07,9,6,9,1.02
2013-4-18,62.7,49.8,32.8,48.9,38.3,31.4,99,69,38,30.40,30.15,15,6,15,1.02
2013-4-19,69.4,61.3,53.3,64.5,59.8,51.3,100,95,82,30.14,29.71,15,6,15,1.07
2013-4-20,61.8,53.6,44.8,61.8,46.3,31.9,100,79,47,30.20,29.63,12,6,12,1.81
2013-4-21,55.7,44.7,31.0,33.3,27.7,23.5,80,53,34,30.57,30.23,7,6,7,1.81
2013-5-18,72.0,64.7,52.2,53.2,49.7,43.8,91,61,40,30.29,30.23,15,3,15,0.00
2013-5-19,70.2,57.6,44.2,55.1,51.5,43.4,99,82,54,30.33,30.22,15,3,15,0.13
2013-5-20,81.1,66.6,55.3,70.6,63.2,55.0,100,90,67,30.22,29.90,12,2,12,0.08
2013-5-21,84.5,65.5,52.6,73.4,62.2,52.3,100,91,65,29.96,29.83,16,2,16,0.97
2013-5-22,74.6,60.6,51.1,67.7,58.9,51.1,100,94,79,30.00,29.86,12,2,12,0.02
2013-5-23,71.8,65.2,61.1,68.1,64.1,60.8,100,97,88,29.92,29.83,20,7,20,0.09
2013-5-24,68.9,62.6,51.3,66.4,62.1,51.0,100,98,89,29.83,29.65,20,3,20,0.87
2013-5-25,53.8,49.3,41.0,53.1,48.8,40.1,100,98,95,29.77,29.67,14,2,14,0.34
2013-5-26,60.4,49.0,40.1,48.3,42.2,38.6,98,79,52,30.10,29.73,22,4,22,0.01
2013-5-27,74.3,57.3,40.1,49.4,44.3,39.3,99,68,33,30.15,30.06,20,3,20,0.00
2013-5-28,76.4,59.3,40.0,57.6,49.2,39.2,99,73,36,30.22,30.15,13,2,13,0.00
2013-5-29,75.0,63.6,57.6,68.2,61.6,56.9,100,94,77,30.19,29.99,12,3,12,1.15
2013-5-30,88.9,74.1,61.2,75.2,68.7,61.2,100,85,59,30.08,29.99,13,2,13,0.24
2013-5-31,92.0,77.2,61.2,76.2,68.2,60.9,100,76,48,30.08,29.94,16,2,16,0.00
2013-6-1,87.8,74.8,64.5,74.8,67.5,63.1,96,79,58,29.98,29.88,20,2,20,0.00
2013-6-2,82.3,70.7,64.7,71.4,65.9,62.8,96,85,66,29.91,29.79,21,5,21,0.00
2013-6-3,71.6,65.8,63.2,70.1,65.2,62.6,100,98,93,29.84,29.77,16,3,16,1.08
2013-6-4,73.8,61.8,48.3,64.3,51.5,45.8,100,71,45,30.07,29.80,15,2,15,0.00
2013-6-5,75.3,59.8,43.9,56.1,50.4,43.4,100,74,41,30.18,30.07,12,1,12,0.00
2013-6-6,74.0,61.4,47.8,62.4,54.1,47.3,100,79,47,30.19,30.08,13,1,13,0.00
2013-6-7,61.2,57.3,55.1,60.9,56.7,53.8,100,98,91,30.09,29.76,7,1,7,3.57
2013-6-8,78.0,63.5,55.1,68.6,60.8,55.1,100,92,70,29.99,29.55,14,2,14,1.57
2013-6-9,80.9,67.8,53.1,65.5,59.9,52.8,100,79,48,30.15,29.99,14,2,14,0.00
2013-6-10,71.9,62.4,53.1,66.2,60.2,52.8,100,93,72,30.18,29.98,5,0,5,1.08
2013-6-11,76.9,63.9,55.3,71.0,63.1,55.0,100,97,79,29.98,29.51,12,1,12,1.10
2013-6-12,72.4,62.5,55.3,60.8,57.6,54.3,100,85,61,29.79,29.55,16,3,16,0.00
2013-6-13,65.9,57.0,48.2,62.1,55.6,47.7,100,95,76,29.82,29.60,12,0,12,0.27
2013-6-14,70.3,58.6,52.4,61.0,55.0,52.3,100,89,63,29.74,29.57,15,3,15,1.42
2013-6-15,80.3,65.6,50.4,58.6,53.6,49.1,100,71,36,29.94,29.74,14,1,14,0.00
2013-6-16,77.8,65.7,53.6,63.9,58.6,52.9,99,80,49,29.94,29.73,20,3,20,0.00
2013-6-17,84.7,70.1,56.3,70.1,64.0,56.0,100,83,56,29.91,29.78,20,3,20,0.03
2013-6-18,83.3,65.0,55.8,69.8,61.0,55.7,100,89,50,29.92,29.84,14,1,14,0.09
2013-6-19,75.8,64.1,54.1,60.9,56.4,51.8,100,79,49,30.14,29.86,10,1,10,0.03
2013-6-20,79.5,64.8,47.4,60.4,54.9,46.9,100,74,45,30.26,30.14,15,2,15,0.00
2013-9-26,51.7,50.8,49.1,50.9,49.8,47.7,97,96,95,30.09,30.08,0,0,0,0.25
2013-9-27,66.3,56.1,44.2,58.2,52.3,43.3,98,88,69,30.25,30.09,12,1,12,0.00
2013-9-28,75.2,54.8,39.7,61.1,50.1,39.1,100,86,57,30.31,30.23,12,1,12,0.00
2013-9-29,70.0,53.9,40.9,57.9,49.5,40.6,100,87,54,30.25,30.10,10,1,10,0.00
2013-9-30,70.7,56.6,43.4,59.0,52.9,42.6,100,89,63,30.09,29.95,6,0,6,0.00
2013-10-1,78.7,56.9,39.3,60.3,50.7,38.8,100,83,46,29.96,29.83,10,0,10,0.00
2013-10-2,82.5,63.7,47.3,66.5,57.9,47.0,100,84,54,29.95,29.82,15,1,17,0.00
2013-10-3,80.2,62.0,47.6,60.6,54.1,47.1,100,79,38,30.07,29.95,12,1,12,0.00
2013-10-4,68.0,55.5,46.6,61.0,54.6,46.1,100,97,68,30.08,30.02,6,0,6,0.53
2013-10-5,69.2,60.9,54.8,63.5,59.1,54.8,100,94,80,30.11,30.03,6,0,6,0.07
2013-10-6,61.4,58.9,57.5,61.1,57.9,55.1,100,96,88,30.19,30.09,7,1,7,0.08
2013-10-7,76.3,69.1,58.5,72.1,67.6,58.5,100,95,85,30.11,29.83,26,6,26,0.16
2013-10-8,69.2,57.5,44.2,63.8,50.1,43.4,100,79,46,30.34,29.89,12,1,12,0.01
2013-10-9,64.8,50.7,41.6,51.3,45.9,41.1,99,85,59,30.42,30.33,15,1,15,0.00
2013-10-10,66.3,54.4,43.6,59.4,52.1,42.8,100,92,76,30.34,30.13,13,1,13,0.00
2013-10-11,69.5,58.6,48.9,60.9,55.2,48.1,99,89,71,30.13,30.07,12,2,12,0.00
2013-10-12,67.5,55.9,48.7,60.4,53.7,48.2,100,92,76,30.35,30.11,18,2,18,0.00
2013-10-13,60.4,49.6,36.6,52.7,46.3,35.8,100,89,71,30.41,30.33,12,1,12,0.00
2013-10-14,67.8,47.1,30.1,52.2,42.5,29.6,100,86,53,30.40,30.24,6,0,6,0.00
2013-10-15,73.0,53.2,38.7,55.4,47.3,38.2,100,83,51,30.26,30.16,10,1,10,0.00
2013-10-16,63.9,54.0,42.5,59.7,52.5,42.2,100,95,86,30.16,29.91,7,0,7,0.00
2013-10-17,69.3,60.7,53.4,63.4,59.0,53.1,100,94,81,29.91,29.73,10,1,10,0.00
2013-10-18,71.3,63.5,49.9,63.5,55.4,45.3,99,77,49,29.86,29.62,18,4,18,0.01
2013-11-7,60.4,48.4,38.8,60.1,47.7,37.1,99,97,94,29.82,29.65,14,2,14,0.60
2013-11-8,50.4,38.8,29.0,39.1,31.1,24.6,98,76,48,30.10,29.82,21,3,21,0.01
2013-11-9,46.8,35.7,26.5,32.6,28.0,24.8,94,76,47,30.20,30.04,17,1,17,0.00
2013-11-10,55.9,44.5,37.0,49.2,39.4,32.6,99,83,59,30.04,29.71,17,2,17,0.05
2013-11-11,53.7,45.5,35.7,42.4,33.7,29.3,84,64,42,30.10,29.86,22,5,22,0.00
2013-11-12,51.0,37.2,27.8,40.8,30.0,17.9,96,76,63,30.18,29.88,16,3,16,0.14
2013-11-13,39.5,29.2,24.8,21.6,17.9,15.2,75,63,45,30.26,30.17,22,3,22,0.00
2013-11-14,51.9,40.2,26.4,33.4,25.5,18.6,74,57,37,30.19,30.05,16,4,16,0.00
2013-11-15,58.2,46.5,36.3,44.4,35.0,24.6,96,66,37,30.21,30.12,14,3,14,0.00
2013-11-16,61.8,46.0,33.7,42.5,38.4,32.4,96,77,45,30.31,30.19,10,1,10,0.00
2013-11-17,60.7,48.5,32.4,60.0,46.9,31.4,100,95,74,30.30,29.84,13,2,13,0.06
2013-11-18,66.0,58.2,44.1,63.9,53.3,38.0,100,85,61,29.84,29.54,30,6,30,0.48
2013-11-19,46.9,40.6,30.9,38.1,27.0,20.2,77,58,44,30.26,29.66,23,6,23,0.00
2013-11-20,43.2,30.6,20.5,21.1,18.4,15.9,88,63,36,30.61,30.26,12,2,12,0.00
2013-11-21,48.2,32.3,18.6,32.6,25.1,16.4,94,77,49,30.63,30.38,9,1,9,0.00
2013-11-22,51.5,44.4,35.9,51.5,43.3,32.1,100,96,86,30.38,29.81,10,1,10,0.25
2013-11-23,49.4,41.8,30.0,47.0,30.7,18.3,99,67,36,29.88,29.78,22,5,22,0.01
2013-11-24,29.9,25.0,20.7,19.7,7.9,-1.8,66,49,29,30.19,29.80,30,10,30,0.00
2013-11-25,34.1,24.4,14.4,26.3,8.0,1.3,78,51,25,30.37,30.20,15,3,15,0.00
2013-11-26,43.6,38.6,33.2,42.8,29.9,22.1,99,72,51,30.32,30.01,14,2,14,0.21
2013-11-27,62.3,53.2,37.1,62.3,52.9,35.1,100,99,93,30.00,29.18,34,8,34,2.99
2013-11-28,36.9,31.0,21.0,35.1,21.0,12.2,93,67,46,30.44,29.48,21,6,21,0.00
2013-11-29,38.1,27.4,19.0,21.2,16.7,9.5,83,65,45,30.72,30.43,14,1,14,0.00
2013-11-30,36.1,25.6,15.6,26.2,17.6,10.1,86,72,47,30.76,30.43,10,1,10,0.00
2013-12-1,47.7,40.0,29.7,46.2,38.2,26.0,100,93,86,30.43,29.98,10,1,12,0.35
2013-12-2,40.9,38.3,36.7,40.7,37.8,36.3,100,98,96,29.98,29.89,4,0,4,0.00
2013-12-3,49.1,38.5,31.8,40.3,35.6,31.0,99,90,64,29.93,29.82,13,2,13,0.00
2013-12-4,46.0,34.1,26.9,34.9,30.6,26.3,99,88,62,30.19,29.94,9,0,10,0.00
2013-12-5,55.5,44.2,28.5,55.5,43.4,27.8,100,97,89,30.19,29.92,18,2,18,0.00
2013-12-6,55.5,49.9,38.3,55.5,49.6,37.6,100,99,95,30.11,29.86,13,2,13,0.45
2013-12-7,41.9,33.9,25.9,37.5,31.0,24.4,99,89,68,30.44,30.05,15,2,15,0.22
2013-12-8,31.9,27.4,19.3,25.4,21.2,17.8,95,78,60,30.58,30.44,5,0,5,0.00
2013-12-9,40.7,35.2,28.3,40.4,34.1,21.6,100,96,72,30.47,29.87,12,1,12,0.36
2013-12-10,33.9,31.0,23.9,33.6,30.5,21.7,99,98,90,30.01,29.77,13,1,13,0.02
2013-12-11,32.6,26.2,21.2,25.7,21.5,19.3,100,83,67,30.24,30.01,15,3,15,0.05
2013-12-12,28.2,19.7,9.9,19.4,12.2,6.6,93,74,45,30.27,30.09,15,2,15,0.00
2013-12-13,32.3,22.6,9.9,18.2,13.9,7.6,90,70,50,30.35,30.01,18,3,18,0.00
2013-12-14,29.5,19.3,13.7,28.7,12.6,1.0,97,76,55,30.58,30.09,16,2,16,0.00
2013-12-15,38.2,30.5,23.0,38.1,29.5,21.5,100,96,85,30.09,29.34,17,4,17,0.87
2013-12-16,31.2,23.0,12.8,22.9,15.4,9.6,96,74,48,30.21,29.75,18,3,18,0.01
2013-12-17,27.5,16.8,3.1,26.5,14.4,0.6,96,90,79,30.26,29.89,12,1,12,0.00
2013-12-18,36.0,26.3,18.9,24.8,21.0,16.9,93,81,58,30.10,29.81,15,3,15,0.04
2013-12-19,44.8,33.4,23.0,33.3,26.8,19.9,90,77,62,30.12,29.96,18,3,18,0.13
2013-12-20,52.7,40.4,29.7,45.0,36.0,27.9,95,85,69,30.12,29.93,20,3,20,0.04
2013-12-21,58.4,50.4,43.6,52.1,48.1,41.1,99,92,77,29.99,29.88,20,5,20,0.00
2013-12-22,59.0,53.7,41.7,58.7,52.9,40.6,99,97,88,29.99,29.78,20,6,20,0.00
2013-12-23,41.9,39.0,34.9,41.1,38.7,34.6,100,99,97,30.06,29.92,9,1,9,0.92
2013-12-24,39.1,33.4,27.0,39.0,26.9,19.0,100,78,55,30.19,30.01,14,3,14,0.01
2013-12-25,27.4,20.3,13.4,20.8,9.9,5.6,91,65,48,30.54,30.18,17,3,17,0.00
2013-12-26,38.0,28.4,15.5,36.7,26.5,13.1,98,93,85,30.49,30.06,10,1,10,0.15
2013-12-27,35.7,27.4,20.6,27.0,23.0,19.6,97,84,58,30.28,30.20,15,1,15,0.01
2013-12-28,49.2,34.6,25.2,33.8,28.1,22.5,93,78,51,30.23,30.00,17,3,17,0.00
2013-12-29,46.3,38.1,27.5,42.5,36.5,25.7,99,94,74,30.03,29.32,18,2,18,1.21
2013-12-30,40.8,33.0,21.1,38.6,27.6,14.4,100,82,57,30.14,29.48,16,3,16,0.01
2013-12-31,26.7,20.7,16.0,16.7,11.2,4.2,87,67,50,30.19,30.02,12,2,12,0.00
2014-1-1,29.7,22.1,13.4,18.0,12.7,8.2,94,67,50,30.37,30.19,14,2,14,0.00
2014-1-2,28.5,24.3,10.2,27.3,22.3,8.1,96,92,72,30.34,29.72,20,4,20,0.00